Regional Weather Roundup
Issued by NWS

Home | Current Version | Previous Version | Graphics & Text | Print | Product List | Glossary On
Versions: 1 2 3 4 5 6 7 8 9 10 11 12 13 14 15 16 17 18 19 20 21 22 23 24 25 26 27 28 29 30 31 32 33 34 35 36 37 38 39 40 41 42 43 44 45 46 47 48 49 50
000
ASUS45 KBOU 232007
RWRCO

WEATHER ROUNDUP FOR COLORADO
NATIONAL WEATHER SERVICE DENVER/BOULDER CO
100 PM MST SUN NOV 23 2014

NOTE: "FAIR" INDICATES FEW OR NO CLOUDS BELOW 12000 FEET WITH NO
SIGNIFICANT WEATHER AND/OR OBSTRUCTIONS TO VISIBILITY.

COZ001>005-013-030-031-232100-
...NORTHWEST COLORADO...

CITY           SKY/WX    TMP DP  RH WIND       PRES   REMARKS
CRAIG          CLOUDY    31  19  61 NW17G26   29.97R WCI  19
HAYDEN         CLOUDY    28  16  59 NW20G31   29.92S WCI  15
MEEKER         CLOUDY    31  20  63 NW12G23   29.98R WCI  22
MOUNT WERNER   NOT AVBL
STEAMBOAT SPGS CLOUDY    26  23  87 CALM      29.89R
WALDEN         CLOUDY    23  16  74 NW16      29.82S WCI  10
$$

COZ006>008-011-232100-
...WEST CENTRAL VALLEYS...

CITY           SKY/WX    TMP DP  RH WIND       PRES   REMARKS
GRAND JUNCTION PTSUNNY   40  24  53 NW9       30.00F
MONTROSE       CLOUDY    36  24  62 NW16G28   29.99R
EAGLE          CLOUDY    34  21  60 SW12G21   29.91S WCI  25
RIFLE          CLOUDY    34  23  64 NW17G23   29.98R WCI  23
DELTA          CLOUDY    39  27  61 W24G36    29.95F
NUCLA          CLOUDY    37  18  44 NW16G22   30.03S
$$

COZ017>023-064>068-232100-
...SOUTHWEST COLORADO...

CITY           SKY/WX    TMP DP  RH WIND       PRES   REMARKS
DURANGO        MOSUNNY   41  10  28 NW24G33   29.82S
CORTEZ         CLOUDY    37  15  40 NW20G32   29.98R
PAGOSA SPRINGS MOSUNNY   38   1  21 N8G18     29.78S
TELLURIDE      HVY SNOW  21  18  90 W13G22    29.93S VSB 1/4 WCI   8
WOLF CREEK PAS PTSUNNY   16   3  57 MISG      29.78F
$$

COZ009-010-012-014-032>034-037-058>063-232100-
...CENTRAL COLORADO...

CITY           SKY/WX    TMP DP  RH WIND       PRES   REMARKS
ASPEN          LGT SNOW  26  17  68 N14G23    29.87S WCI  14
BUENA VISTA    PTSUNNY   35   5  28 NW20      29.76S WCI  24
COPPER MTN     CLOUDY    14   9  79 W20G40    29.75R WCI  -3
BERTHOUD PASS  SNOW       5   1  85 NW32G43   29.69F VSB<1/4 WCI -20
COTTONWOOD PAS MOSUNNY   28   3  34 W18G31    29.75F WCI  16
GUNNISON       CLOUDY    27  18  69 NW14G24   29.88R VSB 1   WCI  15
KREMMLING      PTSUNNY   30  16  55 NW12G17   29.84F WCI  21
LEADVILLE      SNOW      17  12  80 NW10G23   29.78S VSB 1/2 WCI   5
MONARCH PASS     N/A     12   9  85 MISG      29.86R
SALIDA         MOSUNNY   37  10  32 CALM      29.83F
SUNLIGHT       CLOUDY   N/A N/A N/A MISG      29.89R
WILKERSON PASS MOSUNNY   19   1  45 N10G31    29.75S WCI   8
$$

COZ069>075-232100-
...SAN LUIS VALLEY/SANGRE DE CRISTO MOUNTAINS...

CITY           SKY/WX    TMP DP  RH WIND       PRES   REMARKS
ALAMOSA        MOSUNNY   37   5  26 NW20G26   29.75F
LA VETA PASS   LGT SNOW  21  16  79 NE3       29.74F
SAGUACHE       MOSUNNY   32  14  47 NW21G30   29.78S WCI  20
$$

COZ035-036-038>040-232100-
...NORTHERN COLORADO FRONT RANGE...

CITY           SKY/WX    TMP DP  RH WIND       PRES   REMARKS
DENVER INTL AP PTSUNNY   42  11  28 N22G31    29.75S
DMNS CITY PARK   N/A     41  10  27 NE10G20   29.76S
AURORA         PTSUNNY   42  11  28 N18G24    29.76F
FRONT RANGE AP NOT AVBL
ERIE MUNI ARPT CLOUDY    42  12  29 N13G21    29.76S
BOULDER MUN AP CLOUDY    41  14  33 NE9       29.76S
CENTENNIAL     PTSUNNY   40  13  33 N14       29.75F
BROOMFIELD     PTSUNNY   41  12  30 N10       29.76
FORT COLLINS   MOSUNNY   41  16  36 N25       29.77S
LONGMONT       CLOUDY    45  14  29 NE7       29.77F
$$

COZ041-046-047-076>085-087-088-232100-
...PIKES PEAK/PALMER DIVIDE AND SOUTHERN FOOTHILLS...

CITY           SKY/WX    TMP DP  RH WIND       PRES   REMARKS
COLO. SPRINGS  CLOUDY    37  17  44 N17       29.77S
A. F. ACADEMY  CLOUDY    34  18  53 N9        29.76F WCI  26
ELLICOTT       NOT AVBL
FALCON         NOT AVBL
FORT CARSON    CLOUDY    38  18  44 NW6       29.76S
LIMON          CLOUDY    39  14  36 N24G30    29.75F
MONUMENT HILL  PTSUNNY   32  19  59 N6        29.75F WCI  26
TRINIDAD       CLOUDY    32  26  78 NW13      29.80F WCI  22
$$

COZ042>045-048>051-090-091-232100-
...NORTHEAST COLORADO...

CITY           SKY/WX    TMP DP  RH WIND       PRES   REMARKS
GREELEY ARPT   MOSUNNY   46  12  25 N28G41    29.75F
AKRON          SUNNY     42  13  30 N29G36    29.75S
BURLINGTON     PTSUNNY   45  11  25 N30G39    29.70S
WRAY           PTSUNNY   48  12  23 NW23G35   29.73R
STERLING       SUNNY     46  18  31 N26G36    29.75F
HOLYOKE        PTSUNNY   48  14  25 N30G38    29.72F
FORT MORGAN    SUNNY     44  11  26 N22G31    29.77F
$$

COZ086-089-092>099-232100-
...SOUTHEAST COLORADO...

CITY           SKY/WX    TMP DP  RH WIND       PRES   REMARKS
PUEBLO         CLOUDY    38  29  70 W10       29.80S
LA JUNTA       CLOUDY    44  17  33 N16       29.77F
LAMAR          PTSUNNY   48  12  23 N25G32    29.71F
SPRINGFIELD      N/A     44  12  27 N28G33    29.70S
$$



USA.gov is the U.S. government's official web portal to all federal, state and local government web resources and services.